| time (UTC) | temp C | wind direction | speed KPH | gust KPH | rain 1hr cm | rain 24hr cm | rain mn cm | humidity % | barometer mb |
| 20260902224203 | 26 | 359 | 6.4 | 24.1 | 0.00 | 0.00 | 0.00 | 87 | 1010.5 |
| 20260902223202 | 26 | 358 | 6.4 | 16.1 | 0.00 | 0.00 | 0.00 | 87 | 1010.8 |
| 20260902222202 | 26 | 359 | 1.6 | 9.7 | 0.00 | 0.00 | 0.00 | 86 | 1010.7 |
| 20260902221202 | 27 | 359 | 1.6 | 14.5 | 0.00 | 0.00 | 0.00 | 86 | 1010.7 |
| 20260902220202 | 27 | 359 | 3.2 | 14.5 | 0.00 | 0.00 | 0.00 | 85 | 1010.6 |
| 20260902215202 | 27 | 359 | 0.0 | 3.2 | 0.00 | 0.00 | 0.00 | 85 | 1010.2 |
| 20260902214202 | 27 | 359 | 0.0 | 3.2 | 0.00 | 0.00 | 0.00 | 85 | 1009.8 |
| 20260902213203 | 27 | 360 | 0.0 | 3.2 | 0.00 | 0.00 | 0.00 | 86 | 1009.8 |
| 20260902212202 | 27 | 359 | 1.6 | 6.4 | 0.00 | 0.00 | 0.00 | 86 | 1010.3 |
| 20260902211203 | 27 | 359 | 3.2 | 4.8 | 0.00 | 0.00 | 0.00 | 87 | 1010.9 |
| 20260902210203 | 27 | 360 | 0.0 | 1.6 | 0.00 | 0.00 | 0.00 | 87 | 1011.0 |
| 20260902205202 | 27 | 356 | 1.6 | 8.0 | 0.00 | 0.00 | 0.00 | 87 | 1011.2 |
| 20260902204202 | 27 | 355 | 1.6 | 12.9 | 0.00 | 0.00 | 0.00 | 86 | 1011.4 |
| 20260902203203 | 27 | 359 | 0.0 | 9.7 | 0.00 | 0.00 | 0.00 | 86 | 1011.8 |
| 20260902202202 | 27 | 359 | 6.4 | 17.7 | 0.00 | 0.00 | 0.00 | 85 | 1012.1 |
| 20260902201203 | 27 | 359 | 3.2 | 14.5 | 0.00 | 0.00 | 0.00 | 84 | 1012.2 |
| 20260902200223 | 27 | 359 | 3.2 | 12.9 | 0.00 | 0.00 | 0.00 | 82 | 1012.4 |
| 20260902195204 | 28 | 359 | 3.2 | 20.9 | 0.00 | 0.00 | 0.00 | 81 | 1012.6 |
| 20260902194223 | 28 | 359 | 3.2 | 14.5 | 0.00 | 0.00 | 0.00 | 81 | 1012.9 |
| 20260902193223 | 28 | 359 | 1.6 | 12.9 | 0.00 | 0.00 | 0.00 | 80 | 1012.8 |
| 20260902192202 | 28 | 359 | 4.8 | 17.7 | 0.00 | 0.00 | 0.00 | 81 | 1012.9 |
| 20260902191224 | 28 | 359 | 8.0 | 22.5 | 0.00 | 0.00 | 0.00 | 81 | 1012.7 |
| 20260902190204 | 27 | 358 | 4.8 | 17.7 | 0.00 | 0.00 | 0.00 | 82 | 1012.9 |
| 20260902185203 | 27 | 357 | 3.2 | 19.3 | 0.00 | 0.00 | 0.00 | 80 | 1013.0 |
| 20260902184203 | 28 | 355 | 4.8 | 19.3 | 0.00 | 0.00 | 0.00 | 79 | 1012.8 |
| 20260902183203 | 27 | 359 | 11.3 | 20.9 | 0.00 | 0.00 | 0.00 | 80 | 1013.0 |
| 20260902182203 | 27 | 349 | 4.8 | 14.5 | 0.00 | 0.00 | 0.00 | 82 | 1013.0 |
| 20260902181202 | 27 | 359 | 3.2 | 9.7 | 0.00 | 0.00 | 0.00 | 85 | 1012.9 |
| 20260902180203 | 26 | 359 | 1.6 | 14.5 | 0.00 | 0.00 | 0.00 | 86 | 1012.8 |
| 20260902175203 | 26 | 359 | 1.6 | 14.5 | 0.00 | 0.00 | 0.00 | 89 | 1012.9 |
| 20260902174202 | 25 | 359 | 0.0 | 4.8 | 0.00 | 0.00 | 0.00 | 89 | 1013.1 |
| 20260902173204 | 25 | 359 | 1.6 | 8.0 | 0.00 | 0.00 | 0.00 | 89 | 1013.4 |
| 20260902172203 | 24 | 359 | 0.0 | 12.9 | 0.00 | 0.00 | 0.00 | 89 | 1013.5 |
| 20260902171202 | 24 | 359 | 1.6 | 4.8 | 0.00 | 0.00 | 0.00 | 87 | 1013.6 |
| 20260902170208 | 25 | 360 | 0.0 | 8.0 | 0.00 | 0.00 | 0.00 | 86 | 1014.0 |
| 20260902165202 | 25 | 359 | 0.0 | 17.7 | 0.00 | 0.00 | 0.00 | 85 | 1014.7 |
| 20260902164224 | 26 | 359 | 9.7 | 22.5 | 0.00 | 0.00 | 0.00 | 85 | 1015.0 |
| 20260902163204 | 26 | 359 | 3.2 | 9.7 | 0.00 | 0.00 | 0.00 | 85 | 1014.0 |
| 20260902162202 | 26 | 359 | 1.6 | 12.9 | 0.00 | 0.00 | 0.00 | 85 | 1013.5 |
| 20260902161203 | 26 | 359 | 4.8 | 12.9 | 0.00 | 0.00 | 0.00 | 85 | 1013.5 |
| 20260902160223 | 26 | 359 | 4.8 | 16.1 | 0.00 | 0.00 | 0.00 | 86 | 1013.6 |
| 20260902155206 | 26 | 359 | 3.2 | 12.9 | 0.00 | 0.00 | 0.00 | 86 | 1013.8 |
| 20260902154223 | 25 | 359 | 1.6 | 8.0 | 0.00 | 0.00 | 0.00 | 88 | 1013.9 |
| 20260902153202 | 25 | 359 | 0.0 | 14.5 | 0.00 | 0.00 | 0.00 | 90 | 1013.9 |
| 20260902152224 | 25 | 359 | 3.2 | 8.0 | 0.00 | 0.00 | 0.00 | 91 | 1014.1 |
| 20260902151204 | 24 | 358 | 4.8 | 14.5 | 0.00 | 0.00 | 0.00 | 93 | 1014.2 |
| 20260902150202 | 23 | 359 | 3.2 | 20.9 | 0.00 | 0.00 | 0.00 | 94 | 1014.3 |
| 20260902145206 | 23 | 359 | 4.8 | 9.7 | 0.00 | 0.00 | 0.00 | 95 | 1014.5 |
| 20260902144204 | 22 | 359 | 1.6 | 6.4 | 0.00 | 0.00 | 0.00 | 95 | 1014.6 |
| 20260902143203 | 22 | 360 | 0.0 | 0.0 | 0.00 | 0.00 | 0.00 | 95 | 1014.8 |
| 20260902142225 | 21 | 360 | 0.0 | 0.0 | 0.00 | 0.00 | 0.00 | 95 | 1014.9 |
| 20260902141223 | 21 | 360 | 0.0 | 0.0 | 0.00 | 0.00 | 0.00 | 95 | 1015.0 |
| 20260902140203 | 21 | 360 | 0.0 | 0.0 | 0.00 | 0.00 | 0.00 | 95 | 1015.0 |
| 20260902135202 | 21 | 360 | 0.0 | 0.0 | 0.00 | 0.00 | 0.00 | 95 | 1014.9 |
| 20260902134203 | 21 | 360 | 0.0 | 0.0 | 0.00 | 0.00 | 0.00 | 95 | 1014.9 |
| 20260902133202 | 21 | 360 | 0.0 | 0.0 | 0.00 | 0.00 | 0.00 | 95 | 1014.8 |
| 20260902132203 | 21 | 360 | 0.0 | 4.8 | 0.00 | 0.00 | 0.00 | 95 | 1014.6 |
| 20260902131202 | 21 | 359 | 3.2 | 6.4 | 0.00 | 0.00 | 0.00 | 95 | 1014.7 |
| 20260902130203 | 21 | 359 | 1.6 | 3.2 | 0.00 | 0.00 | 0.00 | 95 | 1015.0 |
| 20260902125202 | 20 | 359 | 1.6 | 6.4 | 0.00 | 0.00 | 0.00 | 95 | 1015.2 |
| 20260902124203 | 20 | 359 | 3.2 | 6.4 | 0.00 | 0.00 | 0.00 | 95 | 1015.3 |
| 20260902123202 | 21 | 359 | 1.6 | 9.7 | 0.00 | 0.00 | 0.00 | 95 | 1015.4 |
| 20260902122203 | 21 | 359 | 1.6 | 12.9 | 0.00 | 0.00 | 0.00 | 95 | 1015.7 |
| 20260902121223 | 21 | 359 | 3.2 | 20.9 | 0.00 | 0.00 | 0.00 | 95 | 1014.7 |
| 20260902120202 | 22 | 359 | 0.0 | 4.8 | 0.00 | 0.00 | 0.00 | 95 | 1014.6 |
| 20260902115204 | 22 | 360 | 0.0 | 1.6 | 0.00 | 0.00 | 0.00 | 96 | 1013.5 |
| 20260902114202 | 22 | 360 | 0.0 | 1.6 | 0.00 | 0.00 | 0.00 | 96 | 1012.9 |
| 20260902113204 | 22 | 360 | 0.0 | 1.6 | 0.00 | 0.00 | 0.00 | 95 | 1013.1 |
| 20260902112202 | 22 | 345 | 0.0 | 1.6 | 0.00 | 0.00 | 0.00 | 95 | 1012.9 |
| 20260902111203 | 21 | 359 | 0.0 | 1.6 | 0.00 | 0.00 | 0.00 | 95 | 1012.8 |
| 20260902110202 | 21 | 215 | 0.0 | 0.0 | 0.00 | 0.00 | 0.00 | 95 | 1012.8 |
| 20260902105203 | 21 | 359 | 0.0 | 1.6 | 0.00 | 0.00 | 0.00 | 95 | 1012.3 |
| 20260902104202 | 21 | 349 | 0.0 | 1.6 | 0.00 | 0.00 | 0.00 | 95 | 1012.1 |
| 20260902103202 | 21 | 241 | 0.0 | 0.0 | 0.00 | 0.00 | 0.00 | 95 | 1012.2 |
| 20260902102203 | 21 | 241 | 0.0 | 1.6 | 0.00 | 0.00 | 0.00 | 95 | 1012.6 |
| 20260902101203 | 21 | 360 | 0.0 | 0.0 | 0.00 | 0.00 | 0.00 | 95 | 1012.3 |
| 20260902100228 | 21 | 360 | 0.0 | 0.0 | 0.00 | 0.00 | 0.00 | 95 | 1012.4 |
| 20260902095202 | 21 | 360 | 0.0 | 0.0 | 0.00 | 0.00 | 0.00 | 95 | 1012.1 |
| 20260902094203 | 21 | 360 | 0.0 | 0.0 | 0.00 | 0.00 | 0.00 | 95 | 1012.7 |
| 20260902093202 | 21 | 360 | 0.0 | 0.0 | 0.00 | 0.00 | 0.00 | 95 | 1012.9 |
| 20260902092203 | 21 | 360 | 0.0 | 0.0 | 0.00 | 0.00 | 0.00 | 95 | 1012.9 |
| 20260902091202 | 21 | 360 | 0.0 | 0.0 | 0.00 | 0.00 | 0.00 | 95 | 1013.0 |
| 20260902090202 | 21 | 360 | 0.0 | 0.0 | 0.00 | 0.00 | 0.00 | 95 | 1012.9 |
| 20260902085205 | 21 | 360 | 0.0 | 0.0 | 0.00 | 0.00 | 0.00 | 95 | 1013.3 |
| 20260902084224 | 21 | 360 | 0.0 | 0.0 | 0.00 | 0.00 | 0.00 | 95 | 1013.4 |
| 20260902083203 | 21 | 360 | 0.0 | 0.0 | 0.00 | 0.00 | 0.00 | 95 | 1013.3 |
| 20260902082202 | 21 | 360 | 0.0 | 0.0 | 0.00 | 0.03 | 0.00 | 95 | 1013.3 |
| 20260902081203 | 21 | 360 | 0.0 | 0.0 | 0.00 | 0.03 | 0.00 | 95 | 1013.8 |
| 20260902080202 | 21 | 360 | 0.0 | 0.0 | 0.00 | 0.05 | 0.00 | 95 | 1013.9 |
| 20260902075202 | 21 | 360 | 0.0 | 0.0 | 0.00 | 0.05 | 0.00 | 95 | 1013.8 |
| 20260902074202 | 21 | 360 | 0.0 | 0.0 | 0.00 | 0.05 | 0.00 | 95 | 1013.7 |
| 20260902073202 | 21 | 360 | 0.0 | 0.0 | 0.00 | 0.10 | 0.00 | 95 | 1013.7 |
| 20260902072202 | 21 | 360 | 0.0 | 0.0 | 0.00 | 0.10 | 0.00 | 95 | 1013.9 |
| 20260902071202 | 21 | 360 | 0.0 | 0.0 | 0.00 | 0.10 | 0.00 | 95 | 1014.0 |
| 20260902070204 | 21 | 360 | 0.0 | 0.0 | 0.00 | 0.10 | 0.00 | 94 | 1014.1 |
| 20260902065226 | 21 | 360 | 0.0 | 0.0 | 0.00 | 0.10 | 0.00 | 95 | 1014.1 |
| 20260902064202 | 21 | 360 | 0.0 | 0.0 | 0.00 | 0.10 | 0.00 | 95 | 1014.0 |
| 20260902063203 | 21 | 360 | 0.0 | 0.0 | 0.00 | 0.10 | 0.00 | 95 | 1014.1 |
| 20260902062202 | 21 | 360 | 0.0 | 0.0 | 0.00 | 0.10 | 0.00 | 94 | 1014.1 |
| 20260902061246 | 21 | 360 | 0.0 | 0.0 | 0.00 | 0.10 | 0.00 | 94 | 1014.1 |
| 20260902060202 | 21 | 360 | 0.0 | 0.0 | 0.00 | 0.10 | 0.00 | 94 | 1014.1 |
| 20260902055202 | 21 | 360 | 0.0 | 0.0 | 0.00 | 0.10 | 0.00 | 94 | 1014.2 |
| 20260902054202 | 21 | 360 | 0.0 | 0.0 | 0.00 | 0.10 | 0.00 | 94 | 1014.2 |
| 20260902053225 | 21 | 360 | 0.0 | 0.0 | 0.00 | 0.10 | 0.00 | 94 | 1014.1 |
| 20260902052203 | 21 | 360 | 0.0 | 0.0 | 0.00 | 0.10 | 0.00 | 94 | 1014.0 |
| 20260902051204 | 21 | 360 | 0.0 | 0.0 | 0.00 | 0.10 | 0.00 | 94 | 1014.1 |
| 20260902050202 | 21 | 360 | 0.0 | 0.0 | 0.00 | 0.10 | 0.00 | 94 | 1014.2 |
| 20260902045202 | 21 | 360 | 0.0 | 0.0 | 0.00 | 0.10 | 0.00 | 94 | 1014.1 |
| 20260902044203 | 21 | 360 | 0.0 | 0.0 | 0.00 | 0.10 | 0.00 | 94 | 1014.0 |
| 20260902043204 | 21 | 360 | 0.0 | 0.0 | 0.00 | 0.10 | 0.00 | 93 | 1014.0 |
| 20260902042204 | 21 | 360 | 0.0 | 0.0 | 0.00 | 0.10 | 0.00 | 93 | 1014.1 |
| 20260902041203 | 22 | 360 | 0.0 | 0.0 | 0.00 | 0.10 | 0.00 | 93 | 1014.0 |
| 20260902040204 | 22 | 360 | 0.0 | 0.0 | 0.00 | 0.10 | 0.00 | 93 | 1013.9 |
| 20260902035202 | 22 | 360 | 0.0 | 0.0 | 0.00 | 0.10 | 0.10 | 93 | 1013.9 |
| 20260902034203 | 22 | 360 | 0.0 | 0.0 | 0.00 | 0.10 | 0.10 | 93 | 1013.8 |
| 20260902033202 | 22 | 360 | 0.0 | 0.0 | 0.00 | 0.10 | 0.10 | 93 | 1013.8 |
| 20260902032203 | 22 | 360 | 0.0 | 0.0 | 0.00 | 0.10 | 0.10 | 93 | 1013.7 |
| 20260902031203 | 22 | 360 | 0.0 | 0.0 | 0.00 | 0.10 | 0.10 | 93 | 1013.7 |
| 20260902030203 | 22 | 360 | 0.0 | 0.0 | 0.00 | 0.10 | 0.10 | 93 | 1013.7 |
| 20260902025225 | 22 | 360 | 0.0 | 0.0 | 0.00 | 0.10 | 0.10 | 93 | 1013.7 |
| 20260902024225 | 22 | 360 | 0.0 | 0.0 | 0.00 | 0.10 | 0.10 | 92 | 1013.8 |
| 20260902023245 | 23 | 360 | 0.0 | 0.0 | 0.00 | 0.10 | 0.10 | 92 | 1013.9 |
| 20260902022202 | 23 | 360 | 0.0 | 0.0 | 0.00 | 0.10 | 0.10 | 92 | 1013.9 |
| 20260902021202 | 23 | 360 | 0.0 | 0.0 | 0.00 | 0.10 | 0.10 | 92 | 1013.9 |
| 20260902020203 | 23 | 360 | 0.0 | 0.0 | 0.00 | 0.10 | 0.10 | 92 | 1013.9 |
| 20260902015202 | 23 | 360 | 0.0 | 0.0 | 0.00 | 0.10 | 0.10 | 92 | 1013.9 |
| 20260902014204 | 23 | 360 | 0.0 | 0.0 | 0.00 | 0.10 | 0.10 | 92 | 1013.9 |
| 20260902013223 | 23 | 360 | 0.0 | 0.0 | 0.00 | 0.10 | 0.10 | 91 | 1013.8 |
| 20260902012202 | 23 | 360 | 0.0 | 0.0 | 0.00 | 0.10 | 0.10 | 91 | 1013.9 |
| 20260902011202 | 23 | 360 | 0.0 | 0.0 | 0.00 | 0.10 | 0.10 | 90 | 1013.8 |
| 20260902010225 | 23 | 360 | 0.0 | 0.0 | 0.00 | 0.10 | 0.10 | 90 | 1013.7 |
| 20260902005202 | 24 | 360 | 0.0 | 0.0 | 0.00 | 0.10 | 0.10 | 89 | 1013.4 |
| 20260902004203 | 24 | 360 | 0.0 | 0.0 | 0.00 | 0.10 | 0.10 | 89 | 1013.4 |
| 20260902003203 | 24 | 360 | 0.0 | 0.0 | 0.00 | 0.15 | 0.10 | 89 | 1013.2 |
| 20260902002202 | 25 | 360 | 0.0 | 0.0 | 0.00 | 0.15 | 0.10 | 88 | 1013.1 |
| 20260902001203 | 25 | 360 | 0.0 | 0.0 | 0.00 | 0.15 | 0.10 | 87 | 1012.9 |
| 20260902000204 | 25 | 360 | 0.0 | 0.0 | 0.00 | 0.15 | 0.10 | 87 | 1012.9 |
| 20260901235226 | 25 | 360 | 0.0 | 0.0 | 0.00 | 0.15 | 0.10 | 86 | 1012.8 |
| 20260901234203 | 26 | 360 | 0.0 | 0.0 | 0.00 | 0.15 | 0.10 | 86 | 1012.9 |
| 20260901233224 | 26 | 360 | 0.0 | 0.0 | 0.00 | 0.15 | 0.10 | 86 | 1012.8 |
| 20260901232203 | 26 | 360 | 0.0 | 0.0 | 0.00 | 0.15 | 0.10 | 86 | 1012.9 |
| 20260901231202 | 26 | 360 | 0.0 | 1.6 | 0.00 | 0.15 | 0.10 | 85 | 1013.0 |
| 20260901230203 | 26 | 360 | 0.0 | 1.6 | 0.00 | 0.15 | 0.10 | 86 | 1013.1 |
| 20260901225202 | 26 | 360 | 0.0 | 0.0 | 0.00 | 0.15 | 0.10 | 85 | 1013.2 |